RH
93 98 101 101 100 100 100 98 95 92 86 78 74 70 67 72 84 88 75 65 64 60 51 47 44 38 33 39 48 38 22 23 26 20 20 21 21 22 23 22 22 21 24 37 49 64 86 95 96 96 82 73 83 89 88 88 83 78 75 79 86 74 50 39 47 58 62 69 86 89 73 67 79 88 86 79 63 46 53 72 77 72 71 73 70 59 54
97 101 102 100 100 101 100 97 96 93 86 80 74 70 74 82 84 84 79 68 60 52 42 36 31 27 30 38 44 34 17 14 14 11 10 10 12 15 13 13 17 15 16 23 26 39 56 66 80 90 80 78 84 83 89 98 90 75 68 74 83 78 58 44 45 51 52 55 64 74 76 71 81 95 88 80 83 73 60 65 69 63 64 73 75 69 67
100 103 102 100 100 102 100 98 97 94 88 81 75 71 79 87 84 84 81 62 48 45 44 42 38 39 41 36 39 44 34 15 5 10 15 11 11 19 15 8 9 10 12 15 14 22 32 41 62 80 78 78 81 77 81 88 83 80 83 82 80 77 67 53 47 50 57 60 60 65 73 71 72 79 74 73 91 96 81 73 70 65 70 78 78 71 70
103 104 103 100 101 102 99 99 98 95 87 80 76 75 82 91 93 91 76 50 40 45 45 42 48 57 53 40 41 53 52 33 10 8 21 26 25 25 22 18 13 8 8 11 8 11 19 28 46 65 72 74 75 74 77 78 77 87 96 87 76 77 75 64 57 56 61 71 76 73 72 71 68 65 61 64 80 90 86 80 75 70 71 72 67 66 72
104 103 102 100 102 101 99 100 100 95 86 79 79 80 83 89 91 84 64 38 31 41 45 46 58 70 62 48 43 44 45 41 26 11 9 19 28 24 21 27 27 17 11 10 9 8 8 15 28 42 54 60 62 68 75 80 83 90 93 84 75 76 78 72 65 60 61 72 83 83 74 71 73 69 61 58 65 74 73 71 71 66 64 71 72 72 77
104 101 101 100 101 102 101 101 102 97 87 83 85 85 85 88 88 82 62 34 22 32 46 52 56 61 59 52 43 33 30 39 50 42 16 9 25 25 15 20 24 22 17 13 12 11 8 9 13 21 36 48 56 63 70 82 93 89 79 76 78 76 72 69 65 62 63 68 82 95 88 74 73 74 73 70 67 65 63 66 67 55 51 70 81 80 81
102 101 100 100 101 102 101 101 103 99 91 93 92 85 85 89 89 82 62 42 35 32 36 49 55 48 41 37 29 21 28 47 64 59 29 15 27 27 14 14 18 17 14 10 10 10 7 7 10 17 27 36 48 58 59 70 88 84 70 72 82 79 71 68 62 59 61 63 73 87 84 76 79 81 80 82 78 64 57 66 69 55 49 60 66 74 85
101 102 100 100 102 102 101 101 102 100 100 100 89 78 85 93 87 71 51 47 51 39 33 51 62 47 28 23 22 19 31 53 64 60 44 32 34 31 22 22 25 22 14 6 6 8 7 7 12 24 29 27 38 56 61 71 87 86 75 72 74 70 68 69 64 58 59 60 65 75 74 68 74 77 72 74 77 65 53 62 73 65 58 60 65 79 87
100 102 100 101 102 101 102 100 100 102 101 88 71 67 81 90 81 58 41 48 58 46 37 40 40 34 27 25 25 23 31 49 58 60 60 51 43 42 42 38 31 28 29 24 14 9 11 13 15 25 32 27 28 42 56 73 86 85 79 73 66 58 55 59 59 57 60 64 67 75 79 71 63 61 61 64 75 80 76 76 79 70 65 74 81 83 77
100 102 100 101 102 101 101 100 100 100 87 62 49 55 69 78 75 55 42 54 57 41 30 22 19 29 33 28 27 29 35 46 47 42 44 42 37 38 46 48 40 38 47 45 26 10 10 16 19 26 35 35 33 36 47 61 71 71 67 63 60 57 53 53 55 55 59 67 69 70 79 85 72 58 59 62 66 77 83 82 78 68 62 69 74 73 68
101 102 99 101 102 100 100 101 96 83 60 36 34 51 64 73 71 54 47 56 52 38 27 18 24 45 43 29 31 32 28 31 29 20 21 27 30 29 31 31 28 29 34 33 28 22 18 17 17 20 26 27 27 33 41 47 53 57 57 56 54 49 45 47 53 59 59 61 65 66 75 87 79 68 72 71 60 59 64 71 78 74 64 61 62 65 65
102 102 100 101 102 100 101 97 77 54 35 25 37 59 66 61 50 37 38 44 38 41 43 29 36 63 59 37 31 27 18 17 18 15 16 23 27 25 22 18 12 13 15 15 20 27 28 24 18 13 13 13 13 18 22 24 26 30 35 45 53 48 41 38 40 46 48 50 55 61 66 69 66 71 84 83 71 63 58 62 74 74 66 61 58 55 56
101 103 102 102 101 100 95 76 50 33 24 23 39 54 49 41 35 29 37 42 28 33 54 50 43 53 52 34 23 19 15 15 16 14 12 13 15 15 21 24 14 8 13 14 14 18 21 21 18 14 12 12 9 6 7 9 10 11 13 23 37 47 50 47 39 34 39 51 59 59 59 63 63 67 77 77 70 64 56 57 65 64 61 64 62 54 50
103 103 102 102 101 93 74 49 31 25 20 18 28 33 26 30 39 38 47 51 31 28 55 61 41 31 29 24 18 14 11 10 9 7 5 7 10 10 17 25 19 13 17 17 12 10 11 12 12 12 12 11 9 11 15 16 13 16 22 23 24 37 54 62 55 43 41 57 71 67 61 67 71 69 70 70 65 58 51 51 54 56 59 66 67 57 48
104 102 102 101 91 71 47 31 24 20 17 17 20 23 24 30 37 41 50 51 38 37 51 50 32 21 20 17 11 8 7 6 7 9 9 11 12 9 8 14 18 18 16 13 9 6 5 6 6 7 11 15 19 25 32 33 32 38 45 39 28 34 54 69 68 55 48 63 84 85 75 77 83 81 77 75 70 62 55 51 50 52 59 66 67 60 50
101 101 102 88 65 43 27 22 21 16 17 19 16 20 29 31 29 36 46 44 37 38 40 34 24 17 13 10 7 6 6 6 9 13 15 16 17 14 9 6 9 11 8 9 9 5 6 9 8 11 18 22 26 31 36 42 51 57 55 47 35 34 49 69 76 67 61 75 93 95 87 89 93 92 88 87 86 79 71 64 56 53 59 66 69 63 52
100 101 90 62 37 26 21 19 19 18 17 17 14 17 27 32 30 33 38 36 32 30 27 21 13 9 9 7 6 7 7 6 8 10 12 14 15 13 11 9 8 6 5 6 6 4 6 12 17 24 30 29 34 42 44 47 53 55 54 51 42 33 36 50 63 65 68 84 95 90 84 90 95 95 95 94 90 85 81 76 68 63 65 68 66 64 59
100 87 61 35 23 21 20 19 19 18 16 15 17 20 25 31 31 31 34 34 28 22 17 10 6 8 11 9 7 7 8 8 9 8 10 15 17 14 16 17 13 8 6 5 5 7 13 19 27 38 43 43 50 55 54 55 50 44 52 61 55 47 41 35 39 45 50 71 90 87 83 90 95 97 97 91 80 73 70 72 73 72 74 73 69 69 70
85 60 36 25 23 21 19 19 17 15 15 19 25 27 30 32 31 31 35 31 20 13 9 6 6 8 8 9 9 9 9 10 10 10 12 21 26 24 26 27 20 13 13 11 4 7 20 31 38 44 47 50 57 57 56 55 48 49 72 86 73 62 52 41 43 43 34 52 86 94 90 96 100 99 97 88 78 71 64 63 66 67 70 73 74 74 74
57 38 28 25 24 20 19 18 15 14 17 23 30 33 32 32 31 33 31 20 10 8 7 6 9 9 9 11 11 10 11 10 10 10 12 19 26 27 30 34 27 17 20 25 19 17 32 48 51 50 53 59 63 62 57 52 48 63 96 107 89 74 59 47 55 56 38 49 87 102 97 100 101 98 96 90 82 77 69 63 64 65 63 63 68 74 78
36 30 26 23 21 18 16 14 15 19 24 28 34 36 33 32 34 33 24 11 6 8 7 8 10 10 12 13 11 11 13 11 11 10 7 15 28 31 36 46 45 37 34 34 30 32 45 60 61 55 58 69 76 74 70 63 59 69 88 93 84 76 62 50 57 62 47 54 87 102 98 99 101 98 97 94 88 84 80 77 75 74 69 63 65 75 83
29 25 22 20 18 15 14 15 20 27 30 33 36 35 33 35 35 27 13 6 7 8 8 11 13 13 14 13 13 15 13 11 13 9 5 18 31 34 48 66 69 66 61 47 40 46 55 65 72 69 64 69 74 72 68 67 66 68 71 70 64 61 57 51 56 61 57 66 90 98 90 91 98 98 95 88 80 78 83 87 87 87 87 83 80 84 88
24 21 19 17 15 14 17 21 27 32 34 36 36 34 35 38 32 18 7 6 9 9 10 13 14 14 15 15 14 16 13 12 12 6 8 27 38 41 60 75 68 63 63 59 64 72 68 70 84 89 79 71 67 61 56 57 60 60 59 55 49 50 52 50 54 65 73 81 91 91 88 92 99 97 87 78 72 74 80 84 85 88 92 95 94 92 91
19 19 18 15 15 19 24 28 33 37 38 38 36 36 39 36 22 10 6 8 9 10 13 15 15 15 17 16 16 16 14 13 13 7 9 29 48 54 59 65 65 60 55 61 79 89 84 83 87 85 79 75 70 64 64 67 65 59 56 51 45 46 49 45 46 61 77 84 85 84 89 98 98 89 77 72 79 88 88 84 81 82 85 89 91 90 87
20 19 18 17 20 25 29 33 37 39 40 38 37 40 40 29 13 6 8 9 9 12 14 16 17 17 18 17 17 17 15 13 14 12 9 19 42 55 50 48 56 56 51 66 85 86 79 77 72 68 76 83 81 79 84 89 82 70 65 57 44 43 51 49 45 51 64 77 85 86 91 99 100 93 82 75 81 89 87 82 81 82 81 82 83 82 80
22 21 20 22 26 30 35 38 40 40 40 37 38 42 36 19 7 7 9 8 10 13 15 16 18 18 19 19 19 18 18 17 15 15 13 13 23 37 41 44 48 45 47 65 77 73 68 65 63 71 84 87 86 88 91 93 89 80 75 63 48 53 67 65 59 66 77 88 95 93 92 96 98 95 87 76 70 70 68 67 71 75 77 78 77 76 76
25 23 23 27 32 36 39 40 40 41 41 39 42 42 29 12 6 9 9 9 11 13 15 17 19 19 19 20 21 20 21 21 19 17 17 14 13 17 27 39 49 54 59 62 58 59 68 70 72 85 91 86 84 87 88 91 94 93 89 71 53 62 81 79 75 85 94 98 98 93 88 90 90 86 80 70 59 52 48 47 50 53 58 61 63 65 66
28 27 28 33 37 39 40 40 41 42 41 43 46 39 20 7 7 10 9 9 11 13 16 18 19 19 20 20 21 23 23 24 24 22 19 16 13 11 12 18 26 40 55 62 59 63 73 77 76 79 78 73 70 69 72 81 90 96 99 85 66 72 89 92 90 94 94 91 92 89 87 87 83 78 73 66 57 51 46 44 44 44 44 45 48 52 56
31 31 34 38 39 39 39 41 43 43 43 47 45 30 12 6 9 10 9 11 12 13 17 19 18 20 21 20 20 23 24 25 27 27 25 22 18 15 12 10 9 12 22 38 51 63 74 79 78 73 66 62 59 55 56 65 71 78 88 89 82 84 92 93 93 92 87 83 82 81 78 77 73 69 66 61 56 53 49 47 45 44 43 43 45 48 53
33 36 38 38 37 38 40 43 44 44 46 49 41 21 7 7 11 10 9 11 12 14 16 18 19 20 20 20 20 21 23 26 28 28 29 28 26 22 19 15 13 10 8 11 20 32 43 53 61 65 64 58 54 51 50 54 59 65 72 74 74 74 75 75 75 74 71 69 67 64 63 62 61 59 56 52 49 47 45 43 42 41 41 40 40 40 43
36 38 38 36 35 38 43 46 47 46 48 48 36 16 6 8 11 11 11 11 13 15 16 17 19 19 18 19 20 20 20 23 25 27 29 31 32 31 27 23 19 17 15 13 11 11 14 19 29 41 48 47 46 47 48 48 52 57 61 62 62 60 59 57 56 54 53 53 51 50 50 50 49 48 47 45 43 41 40 40 40 40 40 41 41 42 41
38 37 34 32 34 42 48 50 50 49 51 48 32 13 6 9 10 11 12 12 13 15 16 17 18 19 18 18 19 19 20 20 21 23 26 28 31 33 33 31 27 23 20 20 17 14 11 10 10 13 19 23 26 30 34 37 40 43 46 48 49 49 49 47 45 44 43 42 41 40 40 40 39 39 39 38 37 36 37 38 39 40 42 44 47 50 52
37 34 30 30 36 45 52 54 54 53 53 47 30 11 6 9 10 11 13 13 13 15 15 16 18 17 17 17 17 18 18 19 19 21 22 24 27 30 31 33 34 32 29 28 25 21 18 15 13 10 9 9 10 11 14 18 20 23 27 30 30 31 33 32 32 31 31 30 29 30 29 29 29 29 29 29 30 30 31 33 35 37 40 43 47 53 59
33 29 26 28 38 49 56 57 56 54 52 44 27 11 6 8 10 12 13 13 14 15 14 15 16 16 16 17 17 17 18 18 18 19 20 21 22 24 27 30 33 34 36 36 34 32 28 23 21 19 15 12 11 11 9 8 8 9 10 11 12 13 13 13 14 13 13 12 13 13 14 14 14 14 14 15 15 16 17 18 19 21 23 25 28 31 36
29 25 23 28 42 54 59 58 55 52 48 41 25 11 7 8 10 11 13 13 13 14 14 14 14 14 15 16 16 16 16 16 16 17 19 20 22 22 23 26 28 31 34 36 38 38 37 32 28 26 23 21 19 17 15 13 12 11 9 8 8 8 8 8 8 7 7 8 7 7 8 8 7 8 8 8 8 9 9 9 9 9 10 10 11 11 12
24 20 21 31 48 59 61 59 57 52 47 40 26 12 6 8 9 10 11 12 12 13 13 14 13 12 13 15 15 14 14 14 15 16 16 17 20 21 22 24 25 28 30 33 36 38 39 37 35 32 29 27 25 24 22 20 18 16 15 14 13 12 11 10 10 10 10 10 10 10 10 10 10 10 9 9 9 9 8 8 8 8 8 8 8 8 7
19 17 22 36 53 62 62 59 56 50 46 40 29 15 8 7 8 9 10 11 12 12 12 12 11 11 11 12 12 13 13 13 13 14 15 16 18 20 21 23 24 26 28 30 33 36 38 39 41 41 38 35 31 28 26 24 23 22 20 18 17 16 14 13 13 12 12 11 11 11 10 9 9 9 8 8 8 8 8 8 8 8 8 8 7 7 7
16 16 23 38 54 62 63 60 54 48 44 40 31 20 11 7 7 9 9 9 10 11 11 10 10 10 11 11 11 12 12 13 13 13 14 15 17 18 20 22 24 25 27 29 30 33 36 39 41 43 43 41 38 35 32 29 26 23 21 20 18 17 15 14 13 12 12 11 10 10 10 9 9 8 8 8 8 8 8 9 8 8 9 9 9 9 8
14 16 23 38 52 60 63 61 56 50 46 41 34 25 16 9 7 7 8 8 9 9 9 10 10 10 9 10 11 12 12 12 13 13 14 15 17 18 20 22 24 26 28 29 30 32 35 37 39 41 43 44 43 41 37 33 30 27 24 21 19 18 16 15 14 13 13 12 11 11 10 10 10 9 9 9 9 9 9 9 9 10 10 10 11 11 10
14 16 22 33 46 53 58 59 58 53 49 43 36 30 23 15 9 7 7 8 8 8 8 9 9 9 9 9 9 10 12 12 12 13 14 15 17 18 20 22 24 27 30 31 32 33 35 37 38 40 42 44 45 44 41 38 35 31 27 24 22 20 18 16 15 15 14 13 13 13 12 12 12 11 11 11 11 11 11 11 10 11 11 12 12 13 12
14 15 19 27 34 42 50 55 56 54 52 46 41 37 32 24 18 14 11 9 8 8 9 10 9 8 9 10 9 10 11 12 14 15 16 17 19 20 21 22 25 29 31 33 35 37 38 38 38 39 41 42 44 44 44 42 38 35 31 28 25 22 20 18 17 17 16 15 15 15 14 14 13 13 13 13 13 13 13 13 13 13 13 13 14 14 15
14 15 18 22 25 30 39 46 50 53 54 51 46 44 40 35 32 28 22 16 13 13 12 11 11 11 11 11 12 12 12 13 15 16 17 18 20 23 24 25 28 32 34 36 38 40 40 40 39 39 40 42 43 44 44 43 40 38 35 32 28 25 23 21 19 18 18 18 17 16 16 16 15 15 15 15 15 15 14 14 14 15 15 15 16 17 18
14 14 16 18 20 23 28 34 41 49 54 56 54 51 47 42 40 37 33 29 27 26 22 19 20 20 18 16 16 16 16 17 18 19 20 22 25 27 28 30 33 36 37 40 43 44 43 42 41 40 39 40 42 43 44 42 41 39 37 34 32 29 26 24 22 21 21 20 19 18 18 17 16 17 16 16 15 15 15 15 15 16 16 17 18 19 19
13 14 15 15 17 19 20 24 30 36 45 54 60 58 53 48 46 44 43 42 39 36 34 31 30 29 27 25 24 24 25 26 26 26 28 30 32 33 34 37 40 41 42 43 46 46 43 41 41 39 39 39 40 41 41 40 38 38 36 34 32 31 28 26 25 23 21 21 20 19 18 18 17 17 17 16 16 15 15 15 16 16 16 17 19 20 21
13 14 14 13 14 15 16 17 20 23 30 44 56 59 57 54 50 47 46 44 40 39 39 37 34 33 33 32 31 30 32 33 33 33 34 36 38 40 41 42 43 44 44 45 47 45 42 41 41 39 38 39 40 39 38 36 35 34 34 33 32 31 29 27 25 23 21 21 20 19 18 17 17 16 15 16 15 15 15 15 15 16 16 17 18 20 21
14 13 13 12 12 13 13 14 14 14 18 29 43 54 57 57 54 51 49 46 44 43 43 40 37 36 37 37 37 37 37 38 38 39 40 41 42 44 45 44 45 46 45 46 46 43 39 39 40 39 37 38 38 38 36 34 31 30 31 31 31 30 28 26 24 23 21 19 19 18 17 16 15 15 15 15 15 15 15 15 15 15 16 16 17 19 21
15 13 12 12 11 12 12 12 12 13 13 15 25 39 50 52 52 52 52 49 46 46 46 44 42 42 42 42 42 42 42 42 42 42 43 45 46 47 46 46 47 47 46 46 46 43 39 38 39 38 37 37 36 35 33 31 28 27 28 28 28 27 27 24 22 20 19 17 16 15 15 14 14 14 13 14 14 15 15 15 15 15 16 17 17 18 19
18 14 13 12 11 11 13 12 11 13 12 10 15 29 41 45 45 47 47 46 46 47 47 47 47 47 46 45 45 45 45 45 45 45 46 46 46 47 47 47 47 47 46 46 45 42 39 38 39 38 36 35 33 30 28 26 25 24 25 25 25 24 23 21 18 17 16 15 14 14 13 13 14 14 14 14 15 15 15 16 16 16 16 17 17 17 18
23 18 14 13 11 11 12 12 12 13 13 10 11 18 25 29 32 35 39 41 43 44 44 45 47 47 45 44 44 46 47 47 46 46 46 46 45 46 47 47 47 48 48 46 43 41 40 40 39 37 34 31 28 25 23 22 22 22 22 23 22 20 18 17 15 14 14 14 13 14 14 14 14 14 15 15 15 15 16 17 17 17 17 17 18 18 18
27 23 19 15 12 11 12 12 12 13 13 12 11 12 13 14 17 22 28 34 38 39 39 41 43 44 44 43 43 45 46 45 43 42 41 41 42 43 44 46 47 48 47 45 43 42 42 41 39 36 31 26 22 21 20 19 20 20 19 18 17 15 14 14 14 14 14 14 14 14 14 15 15 15 15 15 15 16 16 16 16 16 17 17 17 18 18
29 27 24 19 15 12 12 13 13 13 13 13 12 12 11 11 11 14 19 25 30 32 33 35 38 40 42 42 41 39 38 35 32 30 29 30 33 36 38 41 44 46 45 44 44 45 44 40 36 31 26 21 18 18 18 17 17 16 15 14 14 14 14 14 14 14 14 15 15 15 14 14 14 14 14 14 14 14 15 15 15 15 16 16 17 18 18
31 30 28 25 20 16 13 13 13 13 13 13 13 13 12 11 10 11 13 16 20 23 25 27 29 31 33 33 32 29 26 23 22 21 20 22 24 27 29 33 38 42 43 44 45 45 42 37 31 24 20 18 17 16 15 15 14 14 13 13 14 14 14 14 15 15 15 14 14 14 14 14 14 14 14 14 14 14 15 15 16 17 18 18 19 20 21
Wind_Speed
23 22 21 20 21 22 23 24 23 22 22 21 21 21 20 19 17 17 18 19 19 18 17 17 17 18 19 19 19 17 17 20 20 20 22 23 25 26 25 26 25 24 27 29 31 28 22 20 21 20 26 31 29 29 30 27 26 26 24 23 22 27 32 33 31 29 28 24 20 19 20 19 19 19 20 21 23 25 25 26 28 29 28 27 27 30 30
23 22 22 22 22 23 24 25 24 23 23 23 23 23 21 19 19 17 17 18 18 17 16 16 18 18 18 17 16 16 18 19 19 19 21 23 24 24 24 26 26 26 28 31 32 31 28 26 24 21 26 31 31 30 30 29 29 29 28 27 26 28 30 31 30 31 31 30 28 24 22 21 20 20 22 22 20 21 25 28 31 33 31 28 27 28 28
24 23 22 22 23 24 25 25 25 24 24 24 24 24 21 19 18 16 16 18 18 17 17 17 17 17 17 17 16 16 17 18 19 19 19 21 22 21 22 24 26 26 28 29 30 31 31 29 25 24 26 28 30 32 30 30 30 30 30 31 29 28 28 30 31 31 31 32 31 29 28 27 24 23 24 24 22 24 28 31 34 36 33 29 29 28 26
24 23 23 23 24 25 26 26 25 25 25 25 24 24 22 20 18 16 17 18 18 18 18 17 16 15 15 16 15 15 16 17 18 19 19 19 20 20 21 23 24 25 26 26 27 29 31 29 26 26 28 27 28 31 31 31 32 32 31 31 31 29 30 32 33 33 32 32 31 31 31 30 28 28 28 27 28 30 31 33 35 36 34 32 33 32 26
25 24 24 24 24 26 27 27 27 26 26 25 24 25 23 19 15 15 16 18 18 18 18 17 15 13 13 15 15 15 16 15 16 18 19 19 19 20 22 21 21 23 24 25 26 27 29 30 28 28 30 30 28 30 32 30 31 33 31 32 34 33 32 32 32 33 34 32 30 30 31 31 30 30 30 30 32 34 37 37 35 32 31 30 29 28 26
25 25 25 25 25 27 27 27 28 27 26 25 24 26 24 18 15 14 15 17 18 18 17 16 15 13 13 15 15 15 15 15 15 17 19 18 17 19 21 21 20 21 23 24 25 26 28 30 30 30 31 31 30 32 32 28 26 28 31 33 36 35 34 33 31 32 33 32 30 27 27 30 30 28 29 30 33 36 37 36 35 33 33 31 25 21 21
26 25 26 26 26 28 28 28 27 27 26 25 26 27 24 19 18 18 17 17 17 17 16 16 15 14 14 14 15 15 15 15 14 15 17 17 17 18 20 20 20 20 22 23 23 25 26 27 28 29 30 31 30 30 32 29 24 26 31 33 33 33 34 34 33 34 33 33 33 30 27 28 29 29 30 30 32 35 34 31 33 35 36 35 31 25 22
26 26 26 27 27 29 29 28 27 27 26 26 28 28 23 19 18 19 18 17 16 16 17 16 15 13 13 14 14 14 15 15 15 15 15 16 17 18 18 19 19 20 21 22 22 22 23 24 26 27 29 32 31 30 30 28 23 24 29 31 32 34 35 34 35 36 35 34 35 33 30 31 31 32 33 32 31 33 35 32 32 33 34 33 32 29 26
26 27 27 28 28 29 29 28 27 27 27 29 31 29 24 19 18 18 19 18 15 15 16 15 13 12 12 13 14 14 15 15 15 15 15 16 16 16 16 18 19 20 19 20 21 22 23 24 26 27 28 31 32 31 29 29 25 23 24 27 30 34 35 36 36 37 36 36 36 34 31 32 35 35 35 34 31 30 31 31 28 29 31 30 28 27 25
27 28 29 29 29 30 28 27 27 28 30 31 30 27 24 20 18 18 19 17 15 15 15 14 13 13 13 14 14 14 14 14 14 15 14 15 16 16 17 17 17 18 19 20 21 23 24 24 25 26 26 28 31 31 29 28 29 27 26 27 29 31 33 34 35 36 37 37 36 34 31 30 33 37 37 35 34 33 31 29 27 28 30 30 28 25 23
28 29 30 30 30 29 28 27 29 31 32 31 29 26 24 21 18 18 18 17 15 14 14 14 13 12 13 14 13 13 13 13 13 14 14 15 16 17 18 18 18 20 21 21 21 20 21 23 24 24 25 26 29 30 28 27 28 29 27 27 28 31 33 33 34 35 36 37 36 34 32 30 30 34 35 34 35 36 35 31 28 29 31 31 28 24 22
28 30 31 31 30 29 28 30 32 32 32 30 28 25 23 21 19 18 17 17 16 14 13 13 13 12 12 13 12 11 12 12 12 13 13 14 15 16 16 18 20 21 21 21 21 20 21 22 23 24 25 26 28 29 28 29 30 31 30 29 28 30 33 34 34 35 36 37 36 34 34 34 33 31 30 31 32 35 35 33 30 30 32 32 30 27 24
29 31 32 31 30 30 31 33 33 32 31 29 26 23 22 20 20 19 18 17 17 16 13 12 13 13 11 10 9 9 10 11 10 10 11 12 13 13 14 15 17 18 19 21 22 22 22 23 23 24 25 25 27 27 27 28 30 32 33 33 31 30 31 33 34 35 36 35 35 35 35 34 33 32 31 30 32 33 33 33 31 32 33 33 31 30 27
31 32 31 30 30 32 34 34 32 31 29 27 25 23 22 21 19 19 18 16 17 16 13 12 12 11 9 8 8 8 9 9 9 9 10 11 12 12 13 15 16 16 18 20 22 22 23 23 24 24 24 24 25 25 25 26 27 28 30 33 33 32 31 31 31 33 34 33 32 34 36 32 30 32 33 32 32 34 34 34 33 33 34 34 33 31 29
33 32 31 31 33 35 35 33 31 29 27 26 24 22 22 21 20 18 17 16 16 16 14 13 12 10 8 8 8 7 7 7 7 8 10 11 12 14 15 16 17 18 19 21 21 22 23 23 23 23 22 23 23 22 23 24 23 24 27 30 32 34 33 31 30 31 33 33 30 30 32 30 27 29 31 31 31 32 33 33 33 32 33 35 34 32 30
34 32 32 34 36 35 34 32 30 28 26 25 24 23 21 21 20 18 16 15 15 14 12 11 11 10 9 8 7 6 5 6 7 8 10 11 12 14 16 17 18 20 21 22 23 23 23 22 22 22 21 22 22 22 23 24 23 24 25 27 30 35 35 32 29 28 31 33 30 28 27 26 24 25 26 26 27 28 29 31 31 31 31 33 35 33 31
33 34 35 37 36 34 33 31 29 28 26 25 25 24 21 19 19 17 15 14 14 12 10 10 10 9 8 6 5 4 5 6 7 8 10 11 13 14 15 17 18 20 21 22 22 23 22 21 21 20 21 22 22 23 24 25 24 23 22 22 26 33 37 36 32 29 30 31 30 28 27 25 24 24 24 23 22 23 25 27 28 27 27 29 32 33 32
35 37 38 37 36 34 32 31 29 27 27 26 25 23 21 19 18 17 15 13 13 13 11 11 10 7 5 4 4 4 6 7 8 9 10 12 14 16 16 17 19 20 20 20 20 20 20 20 20 20 21 22 22 22 23 23 22 21 20 19 23 28 32 34 33 32 31 31 29 29 28 26 26 26 24 23 22 21 22 24 25 24 23 24 28 31 32
38 39 38 36 35 34 32 30 29 28 27 26 24 22 21 19 18 16 14 13 14 14 12 11 8 6 4 3 3 4 5 7 8 9 11 12 14 16 17 18 18 18 18 19 19 19 18 19 20 22 22 22 21 22 23 21 21 20 16 16 21 26 26 27 29 31 33 33 31 29 27 23 21 22 22 22 22 21 21 23 24 23 21 20 22 26 29
40 39 37 36 34 33 31 30 29 28 27 25 23 21 20 20 18 16 14 15 16 15 12 10 8 5 4 2 1 2 4 5 7 9 11 12 14 15 16 16 15 16 16 16 17 17 17 19 20 21 20 19 18 20 22 22 22 22 17 13 15 20 24 26 27 28 32 33 29 25 22 19 17 18 19 20 21 20 19 20 22 22 21 19 19 21 24
39 38 37 35 34 32 31 29 29 28 26 24 23 21 20 20 18 16 16 17 16 14 12 10 7 5 3 2 1 1 3 4 6 10 12 12 12 12 11 10 10 13 15 16 17 17 18 19 19 18 19 18 16 16 19 20 22 24 22 17 14 16 21 25 26 26 29 31 27 21 17 16 16 16 17 18 18 18 17 16 17 19 20 19 19 19 20
38 37 36 34 33 32 30 29 28 27 25 23 22 21 21 20 18 17 18 18 16 13 12 10 7 5 4 3 3 3 4 6 8 12 13 9 6 6 9 9 9 11 14 15 17 18 19 18 15 15 18 19 17 16 17 18 19 22 23 22 20 19 21 22 23 24 26 29 28 23 18 16 16 17 17 18 18 18 17 16 15 17 18 18 19 18 18
37 36 35 33 32 31 30 29 28 25 24 23 22 22 22 20 19 19 20 18 16 13 11 9 8 7 5 5 5 6 7 8 10 13 11 5 0 5 10 11 10 11 14 15 14 15 17 17 13 11 13 14 15 17 18 18 18 19 20 20 19 20 20 20 21 22 24 26 27 24 20 18 18 19 18 18 18 18 19 18 17 17 17 17 17 17 16
36 35 34 33 32 31 30 29 27 25 23 23 22 22 22 20 20 21 20 18 17 15 12 10 8 7 7 7 8 8 9 10 11 14 12 6 4 5 8 10 9 11 14 14 11 11 14 15 12 9 8 9 11 13 15 15 16 16 17 17 17 18 19 20 19 20 21 23 24 22 20 18 19 19 18 18 18 18 18 18 17 17 17 17 16 15 16
35 34 33 32 32 31 29 27 26 24 24 24 24 23 22 21 22 22 20 18 17 15 13 11 9 8 8 9 9 10 11 12 12 14 15 10 7 7 6 7 8 10 14 13 9 8 10 11 10 8 7 7 8 9 11 13 15 15 16 17 18 18 18 19 19 19 19 20 21 21 19 16 17 18 18 18 19 18 17 16 16 17 18 18 17 17 17
35 34 33 32 31 30 28 26 25 25 25 25 25 24 23 23 23 22 19 18 17 14 13 12 10 9 9 10 10 11 12 13 14 15 17 16 11 8 7 7 8 8 10 9 7 6 6 7 8 8 8 8 7 7 8 12 15 16 16 17 18 18 17 17 18 17 17 17 18 17 16 14 15 16 15 15 15 15 15 15 15 16 17 18 19 19 19
35 34 33 32 30 29 27 26 25 26 25 26 25 24 24 25 25 21 19 18 17 15 13 12 11 10 10 10 11 12 13 14 15 16 18 19 17 13 9 7 7 8 7 6 6 7 6 7 8 8 7 7 6 6 7 8 10 14 17 18 18 16 15 16 17 17 15 14 13 13 13 14 14 14 14 13 14 14 14 14 15 16 17 18 18 19 20
34 34 32 31 29 28 27 26 26 26 26 27 26 24 25 26 24 22 20 17 15 14 13 12 11 11 10 9 11 12 13 14 16 17 18 18 19 19 17 13 8 7 7 6 6 7 7 7 8 8 7 6 5 6 6 6 7 10 14 17 18 16 13 13 15 14 14 12 11 11 12 12 13 13 13 12 12 13 13 14 14 15 16 17 19 20 20
34 33 32 30 29 28 27 26 26 27 27 27 26 26 27 26 23 21 21 18 15 14 14 13 11 10 9 9 10 12 13 14 15 17 18 18 18 19 19 19 17 13 8 6 7 8 8 8 8 8 7 7 6 5 6 6 6 7 9 11 14 14 12 12 13 12 12 12 11 10 10 10 10 10 10 10 10 11 12 12 13 14 15 16 18 19 20
33 32 31 30 28 27 27 27 27 28 28 28 27 28 29 27 23 21 20 20 17 14 14 13 11 10 9 9 10 11 12 13 14 16 17 18 18 18 18 18 19 20 17 13 9 7 8 9 10 8 8 8 7 6 6 6 6 7 7 9 10 11 11 11 11 10 10 9 9 9 9 9 9 9 10 10 11 11 12 13 14 14 15 16 17 19 20
33 31 30 29 28 27 27 27 28 28 29 28 28 29 30 28 24 21 19 19 17 14 12 13 12 10 9 10 10 10 10 11 13 14 16 17 17 17 17 18 18 19 19 19 17 15 11 8 8 9 8 8 8 8 7 7 7 8 8 8 9 9 9 9 9 9 9 8 8 8 8 8 9 9 10 11 12 13 14 15 16 17 17 18 19 21 22
32 31 30 29 28 27 27 27 28 28 28 27 27 29 29 27 25 22 20 19 18 15 13 12 12 10 9 10 9 9 10 10 11 13 14 15 16 16 16 16 18 18 18 18 18 18 19 17 15 12 11 10 9 8 8 9 9 9 9 9 10 10 10 10 9 9 9 8 8 8 8 9 9 9 10 11 12 13 14 15 16 18 19 20 21 22 24
31 30 30 29 28 27 27 27 27 27 27 27 27 28 29 27 24 22 20 19 17 16 14 13 12 10 8 9 9 9 8 8 10 12 13 13 14 14 15 15 16 17 17 17 17 17 17 18 18 18 18 18 15 12 10 9 9 9 9 9 9 10 10 10 9 9 9 9 9 9 9 9 10 10 11 12 13 14 15 16 17 19 20 22 23 24 25
31 30 30 29 28 27 27 27 27 27 27 27 28 29 29 26 24 22 20 18 16 15 13 12 11 10 8 7 7 8 8 7 8 10 11 11 12 13 13 13 14 15 16 15 15 15 16 16 16 16 16 17 17 16 15 15 14 13 12 11 10 9 9 8 8 8 7 6 6 6 5 5 5 6 6 8 9 10 11 13 14 16 18 20 22 24 25
31 30 30 29 28 27 27 27 27 27 27 27 28 29 29 27 24 23 21 18 17 16 13 11 10 10 9 7 6 6 6 6 6 7 8 9 10 11 12 11 12 13 14 13 13 14 14 13 14 14 14 14 14 14 13 14 14 13 13 13 13 12 12 11 11 10 9 9 8 7 6 5 4 2 1 1 2 4 5 7 9 11 13 15 17 19 22
31 30 30 29 28 27 27 27 27 26 26 26 27 28 29 27 25 23 21 19 17 16 14 12 11 10 9 8 6 5 5 5 5 6 6 7 8 9 10 10 10 11 11 11 12 13 12 11 12 13 12 12 12 12 11 11 11 11 11 10 10 10 10 9 9 9 8 7 7 6 5 4 3 3 2 1 2 3 4 5 6 8 9 11 13 15 17
31 31 30 29 28 27 27 27 27 27 26 26 26 27 28 27 25 24 22 20 18 16 14 13 11 10 8 7 7 5 4 3 3 3 4 5 6 7 7 8 8 9 10 10 10 10 10 10 10 11 10 10 10 10 10 9 9 8 8 8 7 7 7 7 7 6 6 6 5 5 4 4 3 3 3 3 3 3 4 5 6 7 8 10 11 12 14
31 31 31 30 29 27 26 26 26 26 26 26 26 27 28 28 27 25 23 20 19 17 15 12 11 10 9 8 7 6 4 3 2 1 2 3 4 4 5 6 7 7 8 8 8 8 8 8 8 8 8 8 8 8 8 7 7 6 6 6 5 5 5 5 4 4 4 4 3 3 2 2 2 2 2 3 3 4 5 6 7 8 10 11 12 13 15
31 31 31 30 29 27 26 26 26 25 25 25 25 25 26 26 26 25 23 21 19 18 16 14 13 12 10 9 7 7 6 4 3 1 0 1 2 2 3 4 5 5 5 6 6 6 6 6 6 7 7 6 6 6 6 6 5 5 5 4 4 4 3 3 3 2 2 1 1 0 0 1 2 2 3 4 4 5 6 7 8 9 10 11 13 14 15
32 31 31 30 28 27 26 26 25 25 25 25 24 24 24 25 25 24 23 22 20 19 17 16 14 12 10 9 9 8 7 5 4 3 2 2 1 2 2 3 3 4 4 4 4 4 4 4 4 5 5 5 5 5 4 4 4 4 3 4 4 4 3 3 3 2 1 1 1 1 2 3 3 4 5 5 6 7 8 9 10 10 11 12 13 14 15
31 30 30 29 28 27 26 25 25 25 24 24 24 23 23 23 23 22 21 21 20 19 17 15 13 12 13 12 11 9 8 7 6 5 4 3 3 3 3 3 3 3 3 3 3 2 2 2 3 3 3 3 3 3 3 2 2 2 2 2 3 3 3 3 2 2 1 1 1 1 2 3 4 4 5 6 6 8 9 10 10 11 11 12 14 15 15
31 30 29 28 28 27 26 25 24 24 23 23 22 22 21 21 20 20 20 20 19 18 17 16 14 14 13 11 9 9 9 9 8 7 6 5 5 4 4 4 3 3 3 3 2 2 2 1 1 2 2 2 2 2 1 1 1 1 1 1 2 2 2 1 1 1 1 1 1 2 2 3 4 5 5 6 7 8 9 10 11 11 12 13 14 15 16
30 30 29 28 27 26 25 24 23 22 22 21 21 20 20 20 19 19 18 17 17 17 16 15 13 12 12 11 10 11 11 10 8 8 7 6 6 5 5 4 4 4 4 3 3 3 3 2 2 1 1 1 1 1 0 1 1 1 1 1 2 2 2 1 1 1 1 1 2 3 3 4 5 5 6 6 7 8 9 10 11 11 13 14 14 15 16
30 29 28 27 26 25 24 24 23 22 21 20 19 19 19 19 18 17 17 16 16 16 15 14 13 13 12 12 12 11 10 9 8 8 7 7 6 5 5 5 5 5 4 4 4 4 4 3 2 2 2 2 1 1 1 1 1 1 1 2 2 2 3 2 2 2 2 2 3 3 4 5 5 5 6 6 7 8 8 9 10 12 13 14 15 15 16
30 29 27 26 26 25 24 23 22 22 20 20 19 19 19 18 18 18 17 17 16 15 15 15 14 13 12 11 11 10 9 9 8 8 7 6 6 6 6 5 5 5 5 4 5 6 5 4 3 3 3 2 2 2 2 3 2 2 2 2 2 3 3 3 3 2 2 2 2 3 4 4 5 5 6 6 7 8 9 10 11 12 13 14 15 16 17
29 29 28 26 25 24 23 22 22 21 20 19 19 18 18 18 17 17 16 16 15 15 15 15 14 12 12 11 11 10 9 9 9 8 7 6 6 6 6 6 6 5 5 5 6 7 6 4 4 4 4 3 3 3 3 3 3 2 2 2 2 3 3 3 3 2 2 2 3 3 4 4 5 6 6 7 8 8 9 10 11 12 13 15 16 16 17
30 29 28 27 26 25 24 22 22 21 21 20 19 18 17 18 17 17 17 16 15 14 14 14 13 12 12 12 11 10 10 9 9 8 7 7 7 7 6 6 6 6 6 6 7 7 6 5 4 4 4 4 4 4 4 4 4 3 2 2 2 3 3 3 2 2 2 2 3 3 4 5 5 6 7 8 9 9 10 11 12 13 14 15 16 17 18
30 29 28 27 26 25 24 22 21 21 21 21 20 17 16 16 17 17 16 15 14 14 13 13 13 13 13 12 11 10 10 9 8 8 7 7 7 7 7 7 7 7 7 7 8 8 7 5 5 5 4 4 4 5 4 4 3 2 2 2 2 2 2 2 1 1 1 2 2 3 4 5 6 7 8 9 10 10 11 12 12 13 14 15 17 18 19
30 29 28 27 26 25 24 23 22 21 20 20 20 18 17 17 17 16 14 14 14 13 13 13 12 13 12 11 10 10 9 9 8 8 7 7 7 7 7 8 8 8 8 9 8 7 6 6 6 6 5 4 4 5 4 3 3 2 1 1 1 1 1 1 1 1 1 2 3 4 5 6 7 8 9 10 11 12 12 13 13 14 15 16 17 18 19
31 30 29 28 27 26 25 23 22 21 20 19 19 19 18 17 17 15 14 13 13 13 12 12 13 12 11 10 10 9 8 8 8 7 7 7 7 7 8 8 8 8 9 9 8 7 6 7 6 6 5 5 4 4 4 3 2 2 2 2 2 2 2 2 2 3 3 4 5 6 7 7 8 9 10 11 11 12 13 13 14 15 15 16 17 18 19
31 30 30 29 28 27 26 24 23 22 21 20 19 19 18 17 16 16 15 14 13 13 12 12 12 11 10 10 9 9 8 8 8 8 7 7 7 7 8 8 8 9 9 8 7 7 7 7 7 6 5 5 4 4 3 3 3 3 3 3 3 4 4 4 4 5 5 6 6 7 8 8 9 9 10 11 11 12 12 13 13 14 14 15 16 17 19
32 31 30 29 28 27 27 26 24 23 21 20 19 18 18 17 16 15 15 15 14 14 13 12 11 11 11 10 10 9 9 9 9 8 8 8 8 8 8 8 8 9 9 8 7 7 8 7 6 5 5 4 4 4 3 3 4 4 5 5 6 6 6 5 6 6 6 7 7 7 8 8 9 9 10 10 11 11 12 12 13 14 14 15 16 17 19
Wind_Direction
197 197 198 197 196 195 190 184 180 180 181 180 178 176 171 173 189 197 194 195 197 197 200 203 205 208 208 212 222 226 223 222 221 220 221 221 222 223 222 224 227 225 220 216 215 213 208 209 213 212 213 215 216 214 217 220 218 217 217 211 212 220 220 219 219 222 225 223 222 228 225 217 223 234 231 226 230 235 237 240 244 244 244 246 250 253 255
194 195 196 194 194 192 185 179 178 180 181 181 179 174 170 181 195 197 195 196 196 196 198 203 206 207 208 213 220 222 221 220 219 218 218 220 222 222 222 223 223 221 219 218 219 220 219 217 215 213 214 215 218 217 217 220 222 220 219 214 212 218 221 220 221 224 226 225 226 229 224 214 216 228 228 222 224 236 239 240 244 245 245 247 251 253 251
193 194 193 191 191 188 182 178 178 180 181 181 179 173 173 184 192 194 196 193 191 192 193 199 207 205 205 212 215 217 220 220 217 219 221 222 223 222 222 224 223 222 221 219 219 222 223 222 221 220 221 220 222 223 220 220 223 223 221 218 216 220 221 220 221 223 225 226 227 228 227 224 222 223 224 221 216 223 233 237 241 244 245 245 247 249 250
192 191 190 189 189 185 181 178 179 181 182 180 178 175 176 182 185 189 193 188 186 190 191 196 204 206 207 211 212 212 217 220 219 221 222 222 224 224 223 225 226 225 225 222 220 221 222 223 223 225 227 227 225 226 225 224 224 225 226 223 221 220 220 221 221 220 220 222 222 225 227 229 230 226 223 222 217 219 226 232 236 239 241 242 242 243 246
191 189 187 187 187 184 182 179 180 183 182 179 178 177 177 180 185 190 188 185 187 193 194 197 202 206 207 208 210 211 212 216 220 223 224 223 224 224 223 225 228 227 226 224 223 222 222 223 223 225 229 229 225 225 227 229 228 227 228 227 223 221 221 221 221 220 220 222 223 226 226 225 227 228 225 223 222 223 226 231 236 239 241 243 241 239 241
190 188 186 187 186 183 182 181 182 182 180 179 179 176 172 171 176 183 186 188 191 195 197 199 202 205 208 207 209 210 208 210 218 224 223 220 223 225 223 224 226 226 225 224 223 222 223 223 222 224 228 229 227 225 226 231 233 228 226 225 223 223 223 222 222 221 222 225 226 228 229 227 227 228 227 227 229 231 233 236 240 245 245 243 243 244 244
189 187 185 186 185 182 182 181 181 181 180 180 179 172 167 169 174 178 183 188 192 196 199 201 204 209 211 210 209 208 206 207 215 225 224 219 221 224 221 221 224 227 227 226 223 222 222 223 222 223 226 228 229 230 230 235 239 232 228 227 225 225 225 224 224 223 223 227 229 231 236 235 228 226 227 230 233 237 239 242 243 245 247 246 248 252 249
187 185 184 185 183 182 182 181 181 182 181 180 175 168 165 172 180 180 182 185 190 197 200 200 203 207 209 210 209 207 208 208 212 222 224 222 224 225 222 222 224 227 229 229 227 225 223 222 221 222 225 227 228 230 232 235 238 235 233 231 229 228 228 227 227 227 227 229 230 235 242 240 232 231 233 234 237 241 242 242 242 244 247 249 250 249 244
185 183 183 184 183 182 181 181 182 182 179 175 170 167 167 172 180 182 182 184 189 196 199 198 199 205 208 210 210 208 210 212 214 218 222 223 226 227 226 228 227 228 230 231 230 227 224 223 222 222 224 227 229 231 233 233 233 234 237 236 233 231 232 232 231 231 232 232 231 237 244 244 238 237 237 234 235 241 241 238 239 243 244 245 246 245 244
185 183 182 182 181 181 181 182 181 178 173 169 167 167 170 174 180 183 182 184 187 191 194 194 197 205 209 211 213 212 214 217 219 222 226 229 231 231 231 233 231 227 228 231 231 230 227 226 226 225 226 229 231 233 235 237 238 240 244 244 239 233 233 234 232 232 234 234 234 238 242 245 242 238 237 234 234 239 242 241 243 246 245 244 245 248 248
185 182 181 179 178 179 181 180 176 171 168 166 165 167 172 177 183 184 180 179 181 186 193 195 198 208 212 212 213 215 219 224 226 227 229 231 232 233 234 236 234 230 229 232 234 233 231 230 229 228 228 233 236 236 238 243 245 244 245 246 243 237 235 235 233 233 234 235 236 237 238 244 245 240 237 238 237 240 246 251 252 250 248 247 248 248 247
184 181 177 175 175 178 178 174 170 167 166 165 166 169 173 178 184 183 178 176 177 183 195 200 202 209 215 214 213 215 221 228 231 231 232 233 235 234 233 235 236 235 235 236 236 234 233 233 233 233 234 238 241 241 242 245 247 247 245 244 243 239 237 236 235 235 236 236 237 238 239 245 248 243 240 241 240 242 247 252 254 251 249 249 250 248 247
182 177 174 173 175 175 172 169 167 165 165 165 167 171 175 179 181 179 177 178 179 182 193 203 205 209 213 214 217 222 225 229 231 231 232 235 238 238 235 235 238 237 236 237 238 237 238 238 238 238 238 241 244 246 246 248 248 248 246 244 242 240 238 237 236 236 236 237 237 238 241 246 248 246 244 243 243 244 247 249 252 251 248 249 250 250 247
178 173 171 172 173 170 167 166 164 162 162 165 169 174 178 179 180 178 177 180 180 182 194 205 204 204 210 216 220 223 224 226 229 233 237 242 246 248 247 246 246 244 241 240 240 239 240 240 240 240 240 242 245 247 248 249 249 247 245 242 239 237 236 236 235 234 234 235 237 237 240 245 247 246 246 246 246 246 247 248 250 252 249 247 248 248 246
173 171 170 170 167 165 164 162 161 161 162 166 170 174 178 180 181 180 180 183 181 182 194 203 199 198 206 212 213 213 219 229 237 245 251 252 253 256 256 255 254 250 246 244 243 241 240 240 239 239 239 241 243 245 246 248 247 245 243 241 237 232 229 230 232 232 230 231 236 238 239 241 244 245 245 246 246 246 246 247 248 250 249 245 244 245 245
171 170 168 165 163 162 161 160 160 161 163 168 172 174 176 178 181 183 185 185 182 183 191 193 187 187 192 197 203 211 227 239 248 258 263 262 262 263 263 260 257 253 250 247 245 243 241 240 238 237 237 239 240 241 240 238 239 242 243 242 238 232 227 226 227 227 225 226 231 235 234 235 238 241 241 242 241 240 241 241 242 245 247 243 240 241 242
170 167 164 162 160 160 159 159 160 162 166 170 174 175 175 178 180 182 183 180 177 182 186 178 173 177 182 190 206 225 243 251 254 262 268 269 271 272 269 264 257 253 251 248 245 242 239 235 233 232 234 236 237 238 237 234 235 239 241 241 239 234 229 226 226 226 222 222 228 232 233 233 235 236 235 235 235 235 235 236 237 239 241 239 236 237 240
166 162 160 160 159 159 159 160 161 165 168 171 173 174 175 179 181 178 176 176 175 175 173 167 166 168 174 190 219 238 253 261 264 269 274 274 273 274 272 266 259 252 247 243 240 236 231 227 226 226 229 232 233 234 236 235 234 236 237 237 235 232 229 227 229 229 225 223 229 234 233 234 235 233 230 230 233 236 237 237 237 237 239 239 237 237 238
160 158 158 159 159 159 160 161 164 167 169 170 172 173 174 177 177 174 174 174 170 165 161 159 157 157 163 187 232 253 266 276 279 283 287 284 280 277 273 267 259 251 243 236 232 227 222 221 222 224 229 233 233 233 233 233 230 225 217 216 222 225 223 221 224 225 223 223 228 229 224 223 226 227 228 232 236 239 239 238 239 241 243 243 241 239 239
156 157 158 159 159 160 160 163 166 168 169 170 171 172 174 173 171 170 172 170 162 156 153 150 147 148 156 174 244 274 290 295 296 303 307 300 289 280 272 263 254 244 233 225 222 217 214 220 222 222 227 231 231 231 231 230 227 218 204 199 214 219 217 216 217 219 219 221 225 224 218 219 226 229 231 233 234 235 237 237 238 241 243 243 243 241 238
156 158 159 159 159 160 162 164 166 167 168 170 170 171 172 170 168 168 168 163 157 152 148 145 141 139 135 113 42 339 330 327 327 329 323 309 292 276 260 246 234 225 218 212 208 205 208 218 224 224 225 227 227 229 230 229 227 225 226 235 242 229 219 218 220 220 219 219 221 221 220 226 234 233 229 228 228 229 231 232 233 235 237 240 241 242 239
158 159 159 159 160 161 163 165 166 167 168 169 169 170 169 167 167 167 163 157 152 148 145 140 132 121 109 84 59 37 16 5 356 346 334 316 286 241 221 211 207 207 203 198 199 202 205 210 217 223 228 231 232 233 233 232 231 232 237 244 245 236 226 223 222 221 220 219 221 223 226 233 236 232 226 227 229 229 229 229 227 225 227 232 236 239 240
159 159 159 159 160 162 164 165 166 167 167 167 168 168 167 166 167 165 160 154 149 146 142 134 124 115 103 82 67 50 34 24 11 1 353 344 210 182 193 199 203 201 194 190 194 204 207 206 211 221 227 230 231 230 231 234 235 235 237 238 235 229 225 223 221 220 219 220 222 226 231 234 233 229 224 222 225 229 229 228 226 223 222 226 232 235 238
159 159 159 160 161 162 164 165 166 166 166 166 167 166 166 166 165 162 158 153 149 145 139 130 121 113 99 81 69 56 44 37 27 18 21 43 101 139 173 189 189 184 183 184 191 203 206 207 213 222 223 221 223 227 230 231 229 228 228 227 224 222 220 220 220 219 218 219 222 225 229 229 225 222 216 209 211 218 223 224 224 223 221 223 226 228 233
159 159 160 161 162 163 164 165 165 166 166 166 166 166 166 165 162 160 157 153 150 146 139 132 123 112 98 82 69 60 53 48 42 37 40 58 94 118 136 155 162 170 179 184 190 201 205 207 210 209 202 202 214 226 225 218 216 218 218 214 213 216 217 216 216 217 220 222 222 223 224 220 211 206 202 200 205 213 217 219 221 222 222 222 222 223 226
160 160 162 162 162 163 164 164 165 166 167 167 166 165 165 164 161 159 157 153 151 147 140 133 125 112 99 85 72 66 60 55 54 53 53 59 77 102 121 132 141 159 176 186 194 197 192 190 194 195 194 196 205 212 206 201 205 212 212 207 206 210 211 209 208 210 212 211 210 209 208 202 196 194 194 197 205 212 216 217 217 219 222 223 223 222 225
161 161 162 162 163 163 164 165 166 166 167 167 166 164 164 164 161 159 158 156 152 149 143 135 127 114 101 90 79 71 66 62 60 60 61 63 69 78 94 120 145 159 163 166 180 185 175 165 170 175 177 183 188 188 184 184 192 200 203 202 202 203 203 201 202 205 207 204 200 200 204 205 206 206 208 211 216 220 223 224 223 223 225 227 228 229 231
161 161 162 162 163 164 165 166 166 166 166 166 165 163 164 165 162 158 157 157 155 151 144 136 127 116 105 96 85 75 70 67 65 64 65 67 69 72 75 81 99 138 164 168 167 168 163 161 169 174 170 167 167 171 172 167 167 179 191 197 198 197 192 190 193 199 203 203 200 197 199 201 205 208 211 215 220 225 230 231 232 231 231 232 234 236 237
161 161 162 163 164 164 165 166 166 167 167 166 164 163 164 165 164 159 156 156 159 157 148 138 130 122 114 102 90 80 74 70 68 67 67 68 70 72 74 74 75 84 108 144 167 176 178 174 172 175 176 173 166 161 166 169 162 158 166 177 185 187 185 183 186 190 193 196 198 197 197 199 202 207 212 216 223 231 236 239 242 243 242 242 241 241 242
162 162 163 164 164 164 165 166 167 168 167 166 166 165 164 164 164 163 159 157 161 164 154 142 136 131 122 107 93 85 79 74 72 70 68 68 69 71 74 77 76 76 79 86 104 144 179 191 191 187 181 178 170 157 152 157 158 158 163 169 174 178 181 182 185 188 190 195 201 205 211 215 216 221 227 231 236 242 246 250 254 254 254 255 254 252 251
163 163 164 164 164 165 166 168 169 169 168 168 167 167 166 165 164 164 161 158 160 167 160 146 142 139 126 111 98 90 85 80 77 74 71 69 69 69 71 75 77 78 77 76 77 81 92 121 163 180 181 178 176 170 165 163 158 159 167 172 173 177 180 181 182 185 188 193 200 207 214 221 226 232 238 242 246 251 254 257 260 261 261 262 261 260 259
164 164 164 164 164 165 167 169 169 168 168 169 169 169 168 167 165 164 164 161 162 167 164 151 147 143 129 118 109 97 89 84 81 78 74 71 70 69 70 72 73 75 76 75 74 75 76 79 87 100 110 120 135 155 172 181 181 179 182 185 184 184 186 187 187 190 193 196 202 208 214 219 225 231 237 242 247 252 256 258 260 262 264 264 264 264 263
165 165 164 164 165 167 169 169 168 168 168 169 171 171 171 170 167 165 165 164 163 165 164 157 151 148 136 127 119 107 93 84 81 80 77 75 74 72 70 71 72 73 74 74 74 74 76 78 80 82 86 90 95 102 114 128 142 156 169 180 186 190 193 195 198 201 205 209 215 221 226 231 236 240 243 247 249 252 254 256 258 260 262 263 264 264 264
166 165 165 165 166 168 169 168 168 169 170 170 172 173 173 173 170 166 166 166 164 164 165 161 154 149 143 135 126 115 104 91 82 80 78 75 74 72 70 69 72 74 74 74 75 75 75 78 81 82 84 87 89 91 93 97 101 107 113 119 126 133 140 145 148 150 153 160 170 182 194 206 219 233 244 250 255 259 262 265 266 267 268 269 270 270 269
166 166 165 166 167 168 169 169 170 171 171 172 173 174 175 176 175 171 169 169 168 167 166 166 162 155 149 144 136 122 112 101 87 80 77 73 71 71 69 67 69 72 73 73 75 75 73 76 80 82 83 85 87 88 89 91 93 95 96 98 101 103 107 109 111 111 110 109 111 113 114 114 115 116 118 280 284 287 286 286 285 283 281 281 281 279 278
167 166 166 167 168 168 169 169 171 172 172 173 174 176 177 178 179 177 174 173 174 174 173 172 172 168 162 156 152 142 127 114 96 81 76 71 68 68 68 65 65 69 71 72 72 73 73 75 79 81 81 82 84 85 85 87 88 88 89 91 92 94 96 98 98 98 98 96 94 94 93 91 88 80 60 22 343 323 312 306 303 301 297 294 293 291 288
167 167 167 167 168 168 169 169 170 171 172 174 175 177 179 181 183 183 182 180 179 182 186 184 179 176 174 171 167 163 151 133 114 92 79 70 64 63 64 63 61 64 66 68 70 72 73 75 77 79 81 82 84 85 84 84 85 87 87 88 88 88 87 87 87 88 88 88 86 84 81 77 70 59 48 29 9 356 348 342 338 335 331 327 323 320 317
168 168 168 168 168 168 169 170 171 171 172 174 176 178 181 184 186 188 189 189 187 188 191 192 188 185 186 186 184 183 182 175 158 120 80 64 57 54 54 54 54 55 59 63 67 70 71 74 76 79 81 83 85 87 89 90 91 94 95 94 95 93 91 89 88 85 83 84 84 82 75 62 44 28 14 0 351 345 340 340 340 342 343 341 340 339 338
168 169 169 169 169 169 169 169 171 172 173 175 177 179 182 186 188 190 193 196 197 196 195 197 200 201 200 199 199 200 202 205 207 207 203 34 33 32 33 37 40 42 47 54 59 63 67 72 75 77 80 83 86 90 94 99 102 105 109 112 112 113 113 113 113 111 109 108 112 126 260 282 290 296 300 304 308 312 316 320 326 332 336 336 337 340 343
169 169 169 169 169 169 169 169 171 173 175 176 178 180 182 186 190 193 196 199 202 204 203 204 206 208 209 212 215 216 216 219 227 237 249 262 300 338 350 0 10 19 29 37 43 51 60 67 71 74 77 80 83 85 92 100 108 117 127 132 133 136 138 135 134 142 156 176 204 241 261 270 275 283 288 291 295 299 303 308 315 322 326 328 331 335 339
169 169 169 170 170 170 170 170 172 174 176 178 179 180 183 186 189 193 197 201 204 208 211 212 213 214 217 220 222 222 224 227 233 240 250 259 273 289 303 318 333 342 354 6 15 27 43 53 62 70 74 73 74 74 73 80 100 120 137 146 151 154 151 146 147 152 166 192 231 257 272 281 287 292 296 300 302 304 305 308 314 319 322 324 328 332 335
170 169 170 170 171 170 170 171 172 173 175 177 179 181 183 185 188 192 197 200 203 207 210 212 213 216 219 222 224 226 228 231 234 240 248 256 261 270 282 292 298 304 314 327 335 340 350 8 27 48 65 74 78 77 62 45 61 106 144 176 191 192 180 167 164 171 198 255 277 283 288 295 300 304 308 311 312 312 314 316 319 321 322 325 327 330 332
171 171 170 171 171 171 171 172 171 172 173 175 178 181 183 185 189 193 196 199 203 207 208 209 211 216 218 218 220 224 227 229 232 236 242 248 252 256 266 275 279 285 293 300 300 302 312 325 330 340 14 54 71 66 2 317 317 307 266 241 232 233 229 225 233 262 286 292 300 306 309 309 311 314 317 320 322 323 325 325 326 326 328 329 330 331 332
173 172 172 172 171 172 172 172 171 172 172 172 175 179 182 185 188 191 194 198 202 204 205 205 208 212 214 214 216 221 224 226 229 232 236 242 247 250 257 265 270 276 284 288 285 289 300 312 316 319 334 356 1 344 320 305 297 285 273 268 259 255 254 252 255 267 280 294 300 307 313 315 316 319 321 324 328 330 330 330 331 332 333 334 334 333 334
174 174 173 173 172 172 172 172 173 173 173 173 174 177 180 184 187 190 193 197 199 200 201 203 207 210 211 212 215 218 219 221 226 229 233 238 243 248 253 259 263 268 275 278 280 288 301 315 315 316 323 328 325 323 315 303 294 284 280 277 269 261 261 262 263 272 285 298 307 311 317 319 322 326 330 332 334 336 337 336 337 338 339 341 341 339 338
176 176 175 174 173 173 173 174 175 175 175 176 176 176 179 184 188 190 194 197 198 199 201 204 206 208 210 212 215 217 218 221 226 229 234 239 243 247 252 256 259 264 270 274 279 289 302 313 310 310 315 316 311 311 306 296 290 284 275 270 265 261 265 267 269 280 297 313 321 323 324 328 332 338 342 345 345 345 344 343 343 344 345 346 345 344 343
178 178 177 176 175 175 175 176 177 176 177 179 179 179 181 184 187 189 194 197 197 199 203 205 205 206 209 213 216 217 219 222 226 230 235 241 244 246 251 254 256 260 265 269 275 285 298 309 305 300 305 307 302 300 296 290 288 285 272 262 259 255 258 264 274 293 313 330 336 336 339 346 352 356 357 358 357 355 353 352 351 351 351 350 348 347 346
179 179 179 179 179 178 177 177 178 178 180 182 182 181 183 186 189 191 194 196 196 198 201 203 204 207 209 211 214 216 219 223 228 231 235 240 243 246 249 251 253 258 263 265 269 278 290 298 295 291 294 296 291 290 290 288 284 276 260 247 246 244 246 261 288 325 347 354 357 359 3 6 8 8 7 7 4 1 359 359 358 355 353 352 351 349 347
181 180 181 182 182 181 180 179 179 180 182 183 184 184 187 190 192 193 193 193 194 197 199 201 204 207 209 209 211 213 216 221 226 229 233 239 242 245 248 251 254 256 259 263 269 278 286 288 286 287 291 290 284 282 281 275 266 255 238 216 207 201 187 158 96 69 56 44 36 32 29 24 20 16 13 12 10 7 4 2 0 358 356 355 352 349 347
183 183 184 184 184 183 183 183 182 182 182 184 185 188 191 193 194 194 193 193 194 196 198 201 203 205 205 206 207 209 211 216 222 226 230 236 242 246 249 253 255 257 259 264 272 278 279 278 278 283 286 283 276 270 263 248 224 200 180 170 163 150 129 115 104 92 78 65 54 46 38 31 26 21 17 15 12 9 6 4 2 360 357 354 351 348 346
184 186 187 187 186 185 185 185 185 185 185 185 187 190 193 195 195 195 195 195 196 198 200 203 204 203 202 204 206 209 212 215 221 227 232 237 243 248 252 254 257 258 262 267 271 271 272 274 277 277 276 271 261 249 234 211 181 164 158 150 138 127 120 111 100 89 78 67 58 50 42 36 31 26 23 19 16 12 9 6 3 360 357 353 350 348 346
186 187 188 188 189 189 189 189 189 188 188 188 190 193 194 195 196 197 199 201 202 202 203 205 206 205 206 207 210 214 218 222 226 232 237 241 245 251 256 259 260 261 264 265 264 263 266 270 272 268 260 249 234 219 200 179 161 151 145 137 128 122 116 108 98 88 80 71 62 54 46 40 35 30 25 21 17 13 9 5 1 358 354 351 349 347 346